SCP
3 3 4 5 5 6 7 7 7 6 5 4 4 3 3 3 4 4 4 3 3 3 2 2 2 3 3 3 2 2 1 1 1 1 1 1 1 1 1 1 1 1 1
3 4 5 6 6 7 7 7 7 7 6 6 5 5 4 4 4 4 4 4 3 3 2 2 2 2 3 3 2 2 1 1 1 1 1 1 1 1 1 1 1 1 1
4 5 6 7 8 8 7 7 8 9 8 8 8 7 6 5 5 5 4 4 4 3 3 2 2 2 2 2 2 2 2 1 1 1 1 1 1 1 1 1 1 1 1
4 5 7 8 9 9 7 7 10 11 12 11 11 10 9 8 7 6 5 4 4 3 3 3 3 3 2 2 2 2 2 2 1 1 1 1 1 1 1 1 1 1 1
5 6 7 9 10 9 7 7 10 13 14 14 14 13 12 10 10 8 7 5 4 4 3 3 3 3 2 3 2 2 2 2 1 1 1 1 1 1 1 1 1 1 1
6 6 8 9 10 8 6 7 10 13 14 15 16 15 15 14 14 12 9 6 5 4 4 4 3 3 3 3 2 2 2 2 1 1 1 1 1 1 1 1 1 1 1
6 6 7 9 9 8 7 8 11 13 14 14 15 17 18 19 18 16 12 8 6 5 5 5 4 4 3 3 2 2 2 2 2 2 2 2 1 1 1 1 1 1 1
5 5 6 7 8 8 8 10 13 16 15 14 15 18 21 21 19 17 13 9 7 7 6 5 5 4 3 2 2 2 2 2 2 2 2 2 2 1 1 1 1 1 1
5 4 5 6 8 8 9 12 16 19 18 15 15 17 20 21 19 17 14 10 7 7 6 5 5 4 3 2 2 2 2 2 2 2 2 2 2 1 1 1 1 1 1
5 4 4 5 6 8 10 14 18 21 19 15 13 14 17 19 18 16 12 9 7 6 5 4 4 3 3 2 2 2 2 2 2 2 2 2 2 2 2 2 2 2 2
4 3 3 4 5 7 10 14 18 20 17 13 12 12 13 15 14 12 10 9 7 5 5 4 3 3 3 2 2 2 2 2 2 3 3 3 3 3 3 2 2 2 3
3 3 4 4 5 7 9 12 15 15 12 11 11 11 10 11 10 9 9 8 7 6 5 4 3 3 3 2 2 2 3 3 3 3 4 4 5 4 4 4 4 3 3
3 4 4 5 6 7 8 9 9 8 7 7 8 8 8 8 8 8 9 9 8 7 5 4 4 3 3 2 2 3 3 3 4 4 5 6 7 7 5 5 5 5 4
4 4 5 7 7 7 7 6 6 5 6 6 6 6 7 8 9 11 12 10 8 7 5 4 4 3 3 2 2 2 3 3 4 4 5 6 7 7 6 6 6 6 5
4 5 6 8 8 8 7 7 6 6 6 6 6 7 7 8 10 12 12 10 8 6 5 4 4 3 3 2 2 2 2 3 3 4 5 5 6 6 5 5 6 6 6
7 8 8 8 8 8 8 7 7 7 7 7 7 8 7 7 8 9 9 8 6 5 4 4 4 3 3 2 2 2 3 3 4 4 5 5 5 5 4 4 4 5 5
8 8 9 8 7 7 7 7 6 6 7 7 7 7 7 7 6 6 6 5 5 5 5 5 4 4 3 2 2 2 3 3 4 5 5 5 4 5 5 4 3 3 3
6 7 7 7 7 7 6 6 7 7 7 6 7 7 7 6 5 5 5 5 5 6 6 6 6 5 3 2 1 2 3 3 4 4 4 4 4 4 5 5 5 4 4
5 6 7 8 9 8 6 6 7 7 7 7 7 7 7 7 6 6 6 7 7 7 8 8 7 6 5 3 1 1 3 3 3 3 3 3 3 3 4 5 6 6 6
6 6 7 9 11 11 8 7 8 8 7 7 8 9 9 8 8 8 9 9 9 9 9 8 8 8 6 3 1 1 2 3 3 3 3 2 2 2 3 4 5 6 6
8 8 8 8 10 12 11 11 11 10 9 9 10 10 10 9 9 10 10 10 10 9 9 9 9 9 7 4 2 1 2 3 3 3 3 2 2 1 1 2 3 4 4
8 8 8 9 10 12 14 15 14 12 11 11 11 10 9 8 9 9 9 9 9 8 8 8 9 9 7 4 2 1 1 2 3 3 3 2 2 1 1 1 2 2 2
9 10 11 11 13 15 16 16 15 13 12 12 11 10 8 7 8 8 8 8 7 7 7 7 8 9 8 5 3 1 1 1 2 2 2 1 1 1 1 1 1 2 2
12 14 15 15 15 16 16 16 16 15 14 12 11 10 8 7 7 7 7 7 7 6 6 6 8 10 9 7 4 2 1 1 1 1 1 1 1 2 3 2 2 2 2
12 13 15 15 14 13 12 13 14 14 14 14 12 10 8 7 6 7 7 6 6 4 4 5 8 9 8 6 5 4 2 1 1 1 1 2 3 4 5 4 3 3 3
10 11 13 15 14 11 9 9 9 11 13 13 12 10 8 6 6 6 6 5 4 3 3 4 6 6 5 5 5 4 3 1 1 1 2 3 4 6 7 6 5 4 3
Wind_Speed
10 10 9 9 9 8 7 6 5 4 3 2 2 2 2 2 2 2 2 2 1 1 1 2 1 1 2 1 1 1 0 1 1 0 1 1 2 3 3 2 2 3 3
11 10 9 9 9 8 7 6 5 5 4 3 2 2 2 2 2 2 3 2 2 0 1 1 1 1 1 1 1 1 1 1 0 1 1 1 0 1 3 3 3 3 3
12 11 10 9 9 9 9 7 6 5 5 4 3 2 2 2 2 2 2 2 1 2 1 2 1 2 1 1 0 1 1 1 1 1 0 0 0 0 1 2 3 3 2
11 11 10 9 9 9 9 8 7 6 5 4 3 4 3 2 2 2 2 2 1 1 1 1 1 2 2 2 1 1 2 1 1 1 0 0 0 0 0 0 1 2 2
9 10 10 9 9 9 9 8 7 6 5 4 4 3 2 2 2 2 3 3 2 2 1 1 1 1 1 1 1 2 2 2 2 2 1 0 0 1 1 1 0 0 1
9 9 9 8 7 8 8 8 7 6 5 5 4 4 3 2 2 2 2 2 2 2 2 1 1 0 0 1 1 1 1 1 2 2 2 1 1 1 0 0 1 1 1
8 9 9 8 7 7 8 8 8 7 6 5 4 4 4 3 2 2 2 2 2 2 2 2 1 0 0 0 1 0 1 1 2 2 2 2 1 1 1 0 0 1 1
8 8 9 8 7 7 7 7 8 7 6 5 4 3 3 3 2 2 2 2 2 2 3 2 2 1 1 0 0 0 0 1 1 2 2 2 2 2 1 0 0 0 0
8 8 8 8 7 7 7 7 7 7 7 6 5 4 3 2 2 2 2 2 2 2 3 3 2 2 1 0 0 0 1 1 1 1 1 1 1 1 1 1 0 0 1
8 7 7 7 7 6 7 7 7 7 7 6 5 5 4 3 3 2 2 2 2 2 2 2 2 2 1 1 0 0 0 0 1 1 1 1 2 2 1 1 1 1 0
6 6 6 6 7 7 6 6 6 6 6 6 5 4 4 4 4 3 3 3 3 2 2 2 2 2 1 1 1 0 0 0 1 1 1 1 1 2 2 2 1 1 0
5 5 6 6 5 6 6 5 6 6 5 5 5 5 4 4 4 4 3 3 3 2 2 2 2 2 2 1 1 1 0 0 0 1 1 1 1 1 1 2 2 1 0
5 4 5 5 5 4 4 5 5 5 5 5 5 5 5 4 4 3 3 3 3 2 2 2 2 2 2 2 2 1 1 0 1 0 0 1 0 0 1 1 1 2 2
5 5 5 4 4 4 4 4 4 4 4 4 4 3 3 3 3 3 4 3 3 3 2 2 2 2 2 2 2 2 1 0 0 0 0 1 0 1 1 1 1 1 2
5 5 4 4 4 4 3 3 3 4 4 4 4 3 2 2 2 2 3 3 3 3 2 2 2 2 2 2 1 1 2 1 1 1 1 1 0 0 1 1 1 1 1
4 4 4 4 4 4 3 3 3 4 4 4 4 3 3 2 2 2 2 2 2 2 2 2 2 2 2 2 2 0 1 1 2 2 2 2 2 2 1 1 1 1 1
3 3 3 3 4 4 4 3 3 3 3 3 3 3 3 3 2 2 3 3 3 2 2 2 2 2 2 3 2 1 2 2 2 3 3 3 2 2 2 2 3 3 4
2 2 2 3 3 4 4 3 3 3 4 3 3 2 2 2 2 2 2 3 3 3 3 3 3 2 3 4 3 2 4 3 3 3 3 3 1 1 1 2 3 3 3
3 2 2 2 3 2 3 3 3 3 3 3 3 2 2 2 2 2 2 2 2 2 3 3 3 3 3 5 4 2 3 3 4 4 3 2 2 1 2 3 3 3 3
3 2 2 2 2 2 2 4 3 3 3 2 2 2 2 2 2 3 2 2 2 3 3 3 3 3 3 5 5 4 3 4 3 3 2 3 3 2 2 3 3 3 3
4 3 3 3 3 2 2 2 2 1 2 2 2 2 2 3 3 3 2 2 2 3 3 3 3 4 4 6 7 6 3 4 4 3 2 2 3 3 3 4 4 4 4
4 4 4 4 3 3 3 2 1 1 1 1 1 1 2 3 2 2 2 3 2 3 3 4 4 3 4 5 7 8 7 6 4 3 2 2 4 5 6 5 6 6 5
4 4 4 4 4 3 3 2 1 1 1 1 1 1 1 2 1 2 3 3 3 3 3 3 3 3 3 4 6 8 8 7 4 3 2 3 5 5 5 8 8 6 4
4 3 3 3 2 2 2 2 1 1 1 0 1 1 1 2 2 2 3 3 3 3 3 2 2 2 2 2 2 3 4 4 4 3 2 3 6 6 6 5 5 4 4
3 2 2 2 2 2 2 2 2 1 1 1 1 2 2 2 2 2 2 2 1 1 2 2 2 2 2 1 2 3 3 2 2 2 2 3 3 3 3 3 3 3 3
2 2 2 2 2 2 2 2 2 1 1 1 2 2 2 2 2 2 1 1 2 2 3 3 3 3 3 4 5 5 5 5 4 3 4 4 4 4 4 3 3 3 3
Wind_Direction
163 160 159 158 153 145 146 151 159 155 159 162 170 171 158 152 136 124 115 119 88 77 41 24 34 59 73 64 77 84 232 253 249 294 325 249 197 177 176 182 168 169 171
164 161 163 165 161 154 152 156 166 163 167 166 174 173 167 163 153 128 126 129 120 57 77 54 21 34 89 66 13 9 326 287 301 269 270 288 142 221 186 168 175 180 177
166 167 171 172 166 163 163 166 165 164 173 174 177 174 167 182 151 140 136 131 135 114 51 55 28 351 18 72 354 326 303 305 310 324 16 319 317 297 169 181 163 160 164
166 167 172 175 172 169 167 162 160 163 169 175 185 186 175 176 169 153 139 141 124 117 103 73 50 11 14 29 346 36 317 309 311 331 19 185 120 244 305 310 141 152 166
171 170 171 172 173 169 164 162 159 164 163 172 172 184 191 185 169 151 145 148 152 150 124 102 88 50 26 21 11 14 357 356 341 327 316 305 207 237 213 237 146 141 163
158 160 160 155 164 162 160 157 155 160 166 179 179 181 189 186 171 162 156 162 146 136 120 104 85 81 44 351 348 354 17 353 335 334 344 346 351 305 238 206 211 183 158
151 157 159 158 162 164 166 161 157 164 172 178 183 186 188 185 186 183 167 164 146 133 128 128 110 182 266 275 304 26 355 341 323 326 325 328 339 337 355 106 238 152 163
157 158 158 160 163 164 159 154 158 164 170 173 177 184 190 196 188 178 166 160 144 135 144 152 154 187 224 269 355 315 246 322 315 326 329 325 345 349 357 1 36 349 254
154 154 156 158 159 162 161 157 152 162 169 173 169 178 182 186 177 165 173 158 130 149 146 160 176 184 167 194 47 12 357 353 346 332 329 331 324 334 346 3 47 198 265
153 156 155 157 153 153 157 156 152 162 169 173 176 173 167 170 173 182 175 144 136 143 155 158 166 160 144 131 107 65 331 25 339 312 346 341 341 340 344 359 10 34 204
145 146 151 151 155 153 150 157 152 157 167 167 166 161 168 175 175 181 175 160 157 163 157 148 149 146 138 136 145 206 60 31 336 329 336 332 351 351 354 354 5 10 41
130 134 140 143 145 144 145 147 151 161 164 162 162 164 169 176 183 185 177 169 163 172 167 160 167 174 161 163 168 218 284 231 297 306 336 322 324 349 337 342 339 330 315
117 113 107 115 132 132 133 139 148 163 163 157 163 169 177 184 189 183 165 163 169 180 172 163 168 178 179 188 192 190 240 281 281 276 317 292 301 287 316 305 316 315 315
119 115 109 103 107 108 110 126 151 155 149 146 153 159 182 183 182 175 167 172 176 188 191 181 175 185 193 196 195 186 209 248 292 317 298 302 318 275 270 274 309 314 311
118 111 105 101 102 104 111 123 137 131 134 139 146 149 156 149 155 158 161 168 183 197 190 193 196 203 209 199 164 215 210 202 256 278 273 257 191 24 307 303 308 299 299
117 115 113 112 111 120 124 121 132 132 137 144 145 141 148 152 143 167 162 165 183 198 196 202 208 224 231 140 138 217 230 222 234 249 252 236 219 189 210 242 261 271 252
140 119 119 118 125 128 129 132 135 138 136 139 142 142 153 162 171 188 164 178 193 196 204 206 207 213 185 158 152 170 242 233 235 241 241 254 236 190 224 236 236 251 253
138 127 124 118 112 119 124 129 139 137 141 145 147 153 165 172 175 188 189 202 196 196 201 207 206 205 188 162 173 220 240 232 233 236 241 242 224 252 276 261 255 245 250
128 113 112 123 114 117 137 142 153 147 153 160 164 171 177 181 193 202 207 215 206 205 206 207 197 198 183 177 189 216 258 242 239 231 229 215 212 224 277 268 267 268 266
89 89 81 89 89 101 149 155 166 156 162 168 173 171 181 198 205 206 205 208 210 213 216 217 209 206 195 192 195 206 257 256 250 228 204 193 195 205 248 264 269 268 273
83 80 77 76 71 68 93 119 126 158 168 161 162 170 186 202 201 200 205 211 221 225 218 223 221 215 203 194 197 201 240 265 264 249 209 190 187 207 242 259 262 261 276
81 71 64 63 62 62 73 76 71 114 126 139 166 191 205 232 213 187 202 207 216 234 227 225 227 216 195 190 197 205 228 255 267 262 246 201 200 223 247 253 255 261 270
67 65 66 64 58 54 59 60 33 51 108 140 178 207 225 242 216 197 208 213 216 231 242 231 228 221 193 182 192 209 230 242 260 289 277 249 231 242 251 243 246 248 248
64 56 63 71 63 49 39 32 29 31 73 56 263 232 217 231 234 227 227 226 230 238 246 254 258 247 214 188 186 206 222 235 242 262 276 247 240 252 256 251 240 239 245
60 60 61 57 46 35 29 26 27 33 21 274 270 255 248 240 239 239 263 256 251 241 252 276 287 278 262 240 208 220 234 239 253 262 253 244 248 247 241 241 241 241 247
49 33 34 35 36 33 16 6 4 3 288 253 260 266 261 254 252 233 251 264 230 202 211 229 247 256 245 222 215 216 221 219 221 236 250 249 244 247 247 243 242 236 236